カタログに戻る

STARLINK-34019

運用中通信VLEO
NORAD 64032·PAYLOAD·🇺🇸 United States

打ち上げ May 16, 2025 から Vandenberg Space Force Base

Loading…

次のパス (今後24時間)

TLE

最新Source: CelesTrak SupGP

元期: Sep 15, 2026, 03:41 UTC

1 64032C 25102L   26258.15395833  .00095401  00000+0  33182-2 0  2580
2 64032  70.0007 355.2013 0003165 267.2295 350.8643 15.29536264    11

AllMySatでSTARLINK-34019をリアルタイム追跡

Download on the App Store